Regional Weather Roundup
Issued by NWS

Home | Current Version | Previous Version | Graphics & Text | Print | Product List | Glossary On
Versions: 1 2 3 4 5 6 7 8 9 10 11 12 13 14 15 16 17 18 19 20 21 22 23 24 25 26 27 28 29 30 31 32 33 34 35 36 37 38 39 40 41 42 43 44 45 46 47 48 49 50
000
ASUS43 KMKX 170811
RWRWI

WISCONSIN REGIONAL WEATHER ROUNDUP
NATIONAL WEATHER SERVICE MILWAUKEE/SULLIVAN WI
200 AM CST TUE JAN 17 2017

NOTE: "FAIR" INDICATES FEW OR NO CLOUDS BELOW 12,000 FEET WITH NO
SIGNIFICANT WEATHER AND/OR OBSTRUCTIONS TO VISIBILITY.

WIZ001-002-006>008-014>016-023>028-170900-
NORTHWEST WISCONSIN

CITY           SKY/WX    TMP DP  RH WIND       PRES   REMARKS
SUPERIOR ARPT  CLOUDY    19  17  92 S3        30.01F
ASHLAND        CLOUDY    24  19  81 W3        30.00F
HAYWARD        CLOUDY    30  22  72 N5        29.96F WCI  25
SIREN          CLOUDY    29  22  75 CALM      29.98S
CUMBERLAND     LGT SNOW  32  30  93 N7        29.94S WCI  26
RICE LAKE      LGT SNOW  31  30  96 N12       29.94F WCI  22
CHETEK         LGT SNOW  32  32 100 N3        29.93F
LADYSMITH      LGT RAIN  32  29  90 N8        29.94F WCI  25
EAU CLAIRE     LGT SNOW  33  32  96 NE8       29.90S FOG     WCI  26
MENOMONIE      LGT SNOW  33  33 100 N6        29.91F WCI  27
NEW RICHMOND   LGT SNOW  32  32  99 NE9       29.94S WCI  24
OSCEOLA        MIX PCPN  31  31 100 N5        29.98S WCI  26
$$

WIZ003>005-009-010-017-018-170900-
NORTH CENTRAL WISCONSIN

CITY           SKY/WX    TMP DP  RH WIND       PRES   REMARKS
MANITOWISH WTR CLOUDY    26  24  96 CALM      29.94F
ARBOR VITAE    MIX PCPN  29  26  86 CALM      29.94S
WOODRUFF       MIX PCPN  29  26  86 CALM      29.94S
RHINELANDER    LGT SNOW  29  27  92 NE5       29.94F FOG     WCI  24
EAGLE RIVER    CLOUDY    25  21  85 CALM      29.94S
LAND O LAKES   CLOUDY    23  21  91 CALM      29.97S
PHILLIPS       LGT SNOW  29  25  84 N5        29.93F WCI  24
TOMAHAWK       LGT SNOW  29  27  93 CALM      29.93F
MEDFORD        MIX PCPN  32  31  96 NE7       29.88F WCI  25
MERRILL        LGT SNOW  32  32 100 NE6         N/A  WCI  26
$$

WIZ029-030-035-036-043>047-170900-
CENTRAL WISCONSIN

CITY           SKY/WX    TMP DP  RH WIND       PRES   REMARKS
WAUSAU         LGT RAIN  33  32  96 NE7       29.88F WCI  27
MOSINEE        MIX PCPN  32  32 100 NE5       29.88F WCI  27
MARSHFIELD     CLOUDY    33  31  92 NE12      29.85F FOG     WCI  24
STEVENS POINT  MIX PCPN  31  31 100 NE7       29.87F WCI  25
WAUPACA        LGT RAIN  34  33  93 CALM      29.89S
WAUTOMA        MIX PCPN  33  32  96 NE8       29.87S WCI  26
WISC RAPIDS    LGT RAIN  33  33 100 E7        29.88F FOG     WCI  27
CAMP DOUGLAS   CLOUDY    33  32  98 NE3       29.85F
$$

WIZ011>013-019>022-031-037>040-048>050-170900-
NORTHEAST WISCONSIN

CITY           SKY/WX    TMP DP  RH WIND       PRES   REMARKS
ANTIGO         LGT SNOW  30  30 100 NE10      29.91F WCI  21
SHAWANO        CLOUDY    33  32  94 NE6       29.93F FOG     WCI  28
OCONTO         CLOUDY    32  31  98 NE5       29.94F WCI  27
STURGEON BAY   LGT RAIN  33  32  96 NE7       29.94F FOG     WCI  27
GREEN BAY      MIX PCPN  35  34  96 NE12      29.90F FOG     WCI  27
MANITOWOC      CLOUDY    36  34  92 NE5       29.89F FOG     WCI  32
APPLETON       CLOUDY    32  32 100 NE8       29.86S FOG     WCI  25
CLINTONVILLE   MIX PCPN  32  32 100 NE7       29.90F WCI  26
OSHKOSH        CLOUDY    33  32  96 NE10      29.86F FOG     WCI  25
$$

WIZ032>034-041-042-053>061-170900-
SOUTHWEST WISCONSIN

CITY           SKY/WX    TMP DP  RH WIND       PRES   REMARKS
LA CROSSE      CLOUDY    36  32  85 NW7       29.87F FOG     WCI  30
SPARTA         CLOUDY    32  32 100 N5        29.87S FOG     WCI  27
VIROQUA        CLOUDY    32  32 100 CALM      29.83S
BOSCOBEL       CLOUDY    34  33  96 CALM      29.84F FOG
PRAIRIE DU CHI CLOUDY    33  32  96 CALM      29.84S FOG
PLATTEVILLE    CLOUDY    34  34 100 N7        29.81S WCI  28
$$

WIZ056-057-062-063-064-067-068-170900-
SOUTH CENTRAL WISCONSIN

CITY           SKY/WX    TMP DP  RH WIND       PRES   REMARKS
REEDSBURG      CLOUDY    32  32 100 NE5       29.83F FOG     WCI  27
BARABOO/DELLS  FOG       32  32 100 NE6       29.83F VSB 3/4 WCI  26
LONE ROCK      CLOUDY    34  32  92 NE5       29.83F WCI  30
MINERAL POINT  FOG       34  34 100 N7        29.80S VSB 1   WCI  28
MADISON        LGT RAIN  33  33 100 N8        29.81F FOG     WCI  26
MIDDLETON      CLOUDY    35  35 100 N7        29.82F WCI  29
WATERTOWN      CLOUDY    34  34 100 CALM      29.81F FOG
MONROE         CLOUDY    34  34 100 NE6       29.79R FOG     WCI  29
JANESVILLE     CLOUDY    36  36 100 NE5       29.79S FOG     WCI  32
$$

WIZ051-052-058>065-066-070>072-170900-
SOUTHEAST WISCONSIN

CITY           SKY/WX    TMP DP  RH WIND       PRES   REMARKS
MILWAUKEE      DRZL/FOG  38  36  92 NE6       29.81F VSB 1/2 WCI  33
WAUKESHA       RAIN      32  32 100 NE8       29.81F VSB 1/2 WCI  25
MILWAUKEE/TIMM FOG       34  32  93 NE6       29.82F VSB 3/4 WCI  29
RACINE         FOG       37  36  96 E12       29.81F VSB 1/2 WCI  29
KENOSHA        FOG       37  36  96 E8        29.80S VSB 1/4 WCI  31
FOND DU LAC    CLOUDY    34  32  92 NE9       29.85F FOG     WCI  27
SHEBOYGAN      FOG       34  33  96 E7        29.86F VSB 1/2 WCI  28
WEST BEND      DRZL/FOG  34  34 100 NE8       29.82F VSB 3/4 WCI  27
JUNEAU         LGT RAIN  33  33  99 N5        29.83F VSB 1   WCI  29
$$

LSZ147-162-170900-
LAKE SUPERIOR

STATION/POSITION TIME  TEMP    WIND        PRES    WAVE
                       AIR SEA DIR/SP/G            HT/PER
                 (UTC) (F)     (DEG/KT/KT) (MB)    (FT/S)
DEVILS ISLAND    0800   33      70/  4/  5 1017.0S
PORT WING        0740   23     190/  2/  3 1016.6R
SAXON HARBOR     0740   26     200/  2/  3 1015.6F
$$

LMZ867-665-643>646-170900-
LAKE MICHIGAN

STATION/POSITION TIME  TEMP    WIND        PRES    WAVE
                       AIR SEA DIR/SP/G            HT/PER
                 (UTC) (F)     (DEG/KT/KT) (MB)    (FT/S)
NORTHPORT PIER   0740   35      50/ 10/ 13 1015.2F
SISTER BAY       0750   33      40/  7/  9   N/A
KEWAUNEE LAKESHO 0742   35      70/  7/ 10 1012.8F
SHEBOYGAN LAKESH 0800   36      90/ 12/ 13 1011.4F
PORT WASHINGTON  0730   36      70/  7/  8 1011.5F
MILWAUKEE LAKESH 0750   35      40/  8/  9   N/A
KENOSHA   LAKESH 0800   36      50/  9/ 10 1009.1
$$

TC  - TEMPERATURE IN CELSIUS
VSB - VISIBILITY IN STATUTE MILES
WCI - WIND CHILL INDEX
HX  - HEAT INDEX





USA.gov is the U.S. government's official web portal to all federal, state and local government web resources and services.